Weather History for Jackson, WY

Change the Weather History Date:

Monday, May 12, 2014

  Actual Average Record
Temperature  
Mean Temperature 35 °F -  
Max Temperature 46 °F 56 °F 79 °F (1960)
Min Temperature 24 °F 27 °F 9 °F (1981)
Degree Days  
Heating Degree Days 30    
Moisture  
Dew Point 18 °F    
Average Humidity 61    
Maximum Humidity 80    
Minimum Humidity 20    
Precipitation  
Precipitation 0.00 in - - ()
Sea Level Pressure  
Sea Level Pressure 30.27 in    
Wind  
Wind Speed 14 mph (North)    
Max Wind Speed 18 mph    
Max Gust Speed 24 mph    
Visibility 10 miles    
Events      
Averages and records for this station are not official NWS values.
T = Trace of Precipitation, MM = Missing Value Source: NWS Daily Summary

Daily Weather History Graph

Daily Weather History Graph

Search for Another Location

Airport:

Trip Planner

Search our weather history database for the weather conditions in past years. The results will help you decide how hot, cold, wet, or windy it might be!

Date:

Astronomy

May. 12, 2014 Rise Set
Actual Time 6:01 AM MDT 8:38 PM MDT
Civil Twilight 5:28 AM MDT 9:10 PM MDT
Nautical Twilight 4:47 AM MDT 9:52 PM MDT
Astronomical Twilight 4:00 AM MDT 10:39 PM MDT
Moon 6:36 PM MDT (5/12) 4:47 AM MDT (5/12)
Length of Visible Light 15h 42m
Length of Day
14h 36m
Waxing Gibbous, 95% of the Moon is Illuminated
May 12
Waxing Gibbous
May 14
Full
May 21
Last Quarter
May 28
New
Jun 5
First Quarter

Hourly Weather History & Observations

Time (MDT) Temp. Windchill Dew Point Humidity Pressure Visibility Wind Dir Wind Speed Gust Speed Precip Events Conditions
12:15 AM 30.2 °F 19.3 °F 19.4 °F 64% 30.17 in 10.0 mi North 15.0 mph - N/A   Clear
12:35 AM 30.2 °F 20.2 °F 19.4 °F 64% 30.18 in 10.0 mi North 12.7 mph - N/A   Clear
12:55 AM 28.4 °F 17.5 °F 19.4 °F 69% 30.17 in 10.0 mi North 13.8 mph - N/A   Clear
1:15 AM 30.2 °F 20.2 °F 19.4 °F 64% 30.18 in 10.0 mi North 12.7 mph - N/A   Clear
1:35 AM 28.4 °F 18.0 °F 19.4 °F 69% 30.18 in 10.0 mi North 12.7 mph - N/A   Clear
1:55 AM 28.4 °F 17.0 °F 19.4 °F 69% 30.18 in 10.0 mi North 15.0 mph - N/A   Clear
2:15 AM 26.6 °F 15.2 °F 19.4 °F 74% 30.18 in 10.0 mi North 13.8 mph - N/A   Clear
2:35 AM 26.6 °F 15.7 °F 19.4 °F 74% 30.19 in 10.0 mi North 12.7 mph - N/A   Clear
2:55 AM 26.6 °F 14.7 °F 19.4 °F 74% 30.19 in 10.0 mi North 15.0 mph - N/A   Clear
3:15 AM 26.6 °F 14.7 °F 21.2 °F 80% 30.20 in 10.0 mi North 15.0 mph - N/A   Clear
3:35 AM 26.6 °F 14.7 °F 21.2 °F 80% 30.20 in 10.0 mi North 15.0 mph - N/A   Clear
3:55 AM 26.6 °F 13.8 °F 21.2 °F 80% 30.21 in 10.0 mi North 17.3 mph - N/A   Clear
4:15 AM 26.6 °F 14.7 °F 19.4 °F 74% 30.21 in 10.0 mi North 15.0 mph - N/A   Clear
4:35 AM 26.6 °F 14.7 °F 21.2 °F 80% 30.22 in 10.0 mi North 15.0 mph - N/A   Clear
4:55 AM 24.8 °F 12.4 °F 19.4 °F 80% 30.23 in 10.0 mi North 15.0 mph - N/A   Clear
5:15 AM 24.8 °F 12.4 °F 19.4 °F 80% 30.23 in 10.0 mi North 15.0 mph - N/A   Clear
5:35 AM 24.8 °F 12.4 °F 19.4 °F 80% 30.24 in 10.0 mi North 15.0 mph - N/A   Clear
5:55 AM 24.8 °F 12.4 °F 19.4 °F 80% 30.24 in 10.0 mi North 15.0 mph - N/A   Clear
6:15 AM 24.8 °F 12.4 °F 19.4 °F 80% 30.25 in 10.0 mi North 15.0 mph - N/A   Clear
6:35 AM 24.8 °F 11.5 °F 19.4 °F 80% 30.25 in 10.0 mi North 17.3 mph - N/A   Scattered Clouds
6:51 AM 26.6 °F 14.3 °F 19.4 °F 74% 30.26 in 10.0 mi North 16.1 mph - N/A   Mostly Cloudy
8:00 AM 30.2 °F 20.8 °F 19.4 °F 64% 30.28 in 10.0 mi North 11.5 mph - N/A   Partly Cloudy
8:58 AM 35.6 °F 26.2 °F 19.4 °F 52% 30.29 in 10.0 mi North 15.0 mph - N/A   Partly Cloudy
9:58 AM 37.4 °F 28.9 °F 15.8 °F 41% 30.29 in 10.0 mi North 13.8 mph 19.6 mph N/A   Clear
10:55 AM 39.2 °F 32.0 °F 17.6 °F 42% 30.29 in 10.0 mi North 11.5 mph - N/A   Clear
11:55 AM 42.8 °F 36.2 °F 14.0 °F 31% 30.28 in 10.0 mi NNW 12.7 mph 18.4 mph N/A   Scattered Clouds
12:51 PM 42.8 °F 37.5 °F 14.0 °F 31% 30.28 in 10.0 mi NNW 9.2 mph 20.7 mph N/A   Clear
1:55 PM 46.4 °F 40.4 °F 14.0 °F 27% 30.27 in 10.0 mi NNW 13.8 mph 21.9 mph N/A   Mostly Cloudy
4:05 PM 46.4 °F 40.1 °F 6.8 °F 20% 30.28 in 10.0 mi North 15.0 mph 23.0 mph N/A   Mostly Cloudy
4:55 PM 46.4 °F 39.5 °F 6.8 °F 20% 30.29 in 10.0 mi NNW 17.3 mph - N/A   Clear
5:51 PM 46.4 °F 40.1 °F 8.6 °F 22% 30.30 in 10.0 mi North 15.0 mph - N/A   Clear
6:53 PM 44.6 °F 36.9 °F 12.2 °F 27% 30.31 in 10.0 mi North 18.4 mph 24.2 mph N/A   Clear
8:58 PM 35.6 °F 27.5 °F 17.6 °F 48% 30.37 in 10.0 mi North 11.5 mph - N/A   Clear
9:15 PM 35.6 °F 28.0 °F 17.6 °F 48% 30.37 in - North 10.4 mph - N/A   Clear
9:35 PM 33.8 °F 27.0 °F 21.2 °F 60% 30.38 in - North 8.1 mph - N/A   Clear
9:55 PM 33.8 °F 27.7 °F 21.2 °F 60% 30.39 in - NNE 6.9 mph - N/A   Clear
10:15 PM 30.2 °F 23.4 °F 23.0 °F 75% 30.40 in - NNE 6.9 mph - N/A   Clear
10:35 PM 30.2 °F 21.3 °F 23.0 °F 75% 30.40 in 10.0 mi North 10.4 mph - N/A   Clear
10:55 PM 30.2 °F 20.2 °F 21.2 °F 69% 30.41 in 10.0 mi North 12.7 mph - N/A   Clear
11:15 PM 30.2 °F 21.9 °F 21.2 °F 69% 30.41 in 10.0 mi North 9.2 mph - N/A   Clear
11:35 PM 32.0 °F 24.8 °F 21.2 °F 64% 30.42 in 10.0 mi NNE 8.1 mph - N/A   Clear
11:55 PM 32.0 °F 26.4 °F 19.4 °F 60% 30.43 in 10.0 mi North 5.8 mph - N/A   Clear